Skip Page Navigation
NASA JPL Caltech
NASA Logo - Jet Propulsion Laboratory + View the NASA Portal
+ Near-Earth Object (NEO) Program
Search JPL
JPL Home Earth Solar System Stars & Galaxies Technology
JPL Solar System Dynamics
BODIES ORBITS EPHEMERIDES TOOLS PHYSICAL DATA DISCOVERY FAQ SITE MAP
JPL Small-Body Database Browser
Search: [ help ]  
13357 Werkhoven (1998 TE29)
Classification: Main-belt Asteroid          SPK-ID: 2013357
Ephemeris | Orbit Diagram | Orbital Elements | Physical Parameters | Discovery Circumstances | Close-Approach Data ]

[ show orbit diagram ]
Orbital Elements at Epoch 2456400.5 (2013-Apr-18.0) TDB
Reference: JPL 1 (heliocentric ecliptic J2000)
 Element Value Uncertainty (1-sigma)   Units 
e .1627283492272692 8.1841e-08  
a 2.753783513780171 3.2634e-08 AU
q 2.305664868453455 2.3541e-07 AU
i 6.865945345919178 8.7409e-06 deg
node 226.3499066716801 5.8552e-05 deg
peri 294.8010623057168 6.3712e-05 deg
M 312.9266866009116 2.8157e-05 deg
tp 2456618.755596167448
(2013-Nov-22.25559617)
0.00013239 JED
period 1669.141365812648
4.57
2.9671e-05
8.123e-08
d
yr
n .2156797544974438 3.8339e-09 deg/d
Q 3.201902159106888 3.7945e-08 AU
  Orbit Determination Parameters
   # obs. used (total)      798  
   data-arc span      13305 days (36.43 yr)  
   first obs. used      1976-10-31  
   last obs. used      2013-04-05  
   planetary ephem.      DE405  
   SB-pert. ephem.      SB405-CPV-2  
   condition code      0  
   fit RMS      .54395  
   data source      ORB  
   producer      Otto Matic  
   solution date      2013-Apr-29 13:52:05  

Additional Information
 Earth MOID = 1.3236 AU 
 T_jup = 3.315 
[ show covariance matrix ]

Ephemeris | Orbit Diagram | Orbital Elements | Physical Parameters | Discovery Circumstances | Close-Approach Data ]

Physical Parameter Table
Parameter Symbol Value Units Sigma Reference Notes
absolute magnitude H 13.5 mag n/a PDS3 (MPC 37584)  

13357 Werkhoven           Discovered 1998 Oct. 15 by Spacewatch at Kitt Peak.
Margaretha Cornelia Maria Werkhoven (b. 1946) is a Dutch-Surinamese botanist at the National Herbarium of Suriname. She specializes in the flora (especially orchids) of the Guianas. The plants Hirtella margae and Philodendron werkhoveniae have been named after her.
NOTE: some special characters may not display properly (any characters within {} are an attempt to place the proper accent above a character)
Reference: 20111210/MPCPages.arcLast Updated: 2011-12-12

[ show close-approach data ]
Alternate Designations
 1998 TE29 = 1976 UR = 1991 FX 
Ephemeris | Orbit Diagram | Orbital Elements | Physical Parameters | Discovery Circumstances | Close-Approach Data ]
ABOUT SSD CREDITS/AWARDS PRIVACY/COPYRIGHT GLOSSARY LINKS
FirstGov 2013-May-24 22:50 UT
(server date/time)  
NASA Home Page
Site Manager:   Donald K. Yeomans
Webmaster  Alan B. Chamberlin